{"data":{"norad_id":59887,"intl_designator":"2024-100C","name":"STARLINK-31976","alt_names":[],"object_type":"PAYLOAD","status":"ACTIVE","operator":null,"country":"US","launch_date":"2024-05-28","launch_site_code":"AFETR","launch_vehicle":null,"mission":null,"orbit_class":"UNKNOWN","rcs_meters":null,"size_class":null,"mass_kg":null,"dimensions":null,"purposes":["comms"],"wikipedia_slug":null,"has_3d_model":false,"image_url":null,"decayed_at":null,"tle_current":{"epoch":"2026-05-24T22:43:41.867040Z","epoch_age_seconds":80455,"freshness":"FRESH","line1":"1 59887U 24100C   26144.94701235 -.00002225  00000+0 -71353-4 0  9997","line2":"2 59887  43.0039  58.6694 0000771 263.1249  96.9515 15.27590959112773","mean_motion":15.27590959,"eccentricity":7.71e-5,"inclination_deg":43.0039,"raan_deg":58.6694,"arg_perigee_deg":263.1249,"mean_anomaly_deg":96.9515,"bstar":-7.1353e-5,"rev_number":11277,"period_min":94.266072440142,"perigee_km":482.48728612939,"apogee_km":483.54527596532,"semimajor_km":6861.1532810474,"source":"CELESTRAK","updated_at":"2026-05-25T13:38:19.095830Z"}}}